Regional Weather Roundup
Issued by NWS Little Rock, AR

Home | Current Version | Previous Version | Text Only | Print | Product List | Glossary Off
Versions: 1 2 3 4 5 6 7 8 9 10 11 12 13 14 15 16 17 18 19 20 21 22 23 24 25 26 27 28 29 30 31 32 33 34 35 36 37 38 39 40 41 42 43 44 45 46 47 48 49 50

000
ASUS44 KLZK 120005
RWRLZK

WEATHER ROUNDUP FOR ARKANSAS
NATIONAL WEATHER SERVICE LITTLE ROCK AR
600 PM CST THU FEB 11 2016

NOTE: "FAIR" INDICATES FEW OR NO CLOUDS BELOW 12,000 FEET WITH NO
SIGNIFICANT WEATHER AND/OR OBSTRUCTIONS TO VISIBILITY.

ARZ001-003-010-029-120100-
NORTHWEST ARKANSAS

CITY           SKY/WX    TMP DP  RH WIND       PRES   REMARKS
FAYETTEVILLE   PTCLDY    48  26  42 NE5       30.16R
6HR MIN TEMP:  48; 6HR MAX TEMP:  58;

FORT SMITH     PTCLDY    58  28  32 NE7       30.13R
6HR MIN TEMP:  56; 6HR MAX TEMP:  65;

HARRISON       MOCLDY    44  21  40 E8        30.17F
6HR MIN TEMP:  41; 6HR MAX TEMP:  50;

BENTONVILLE    MOCLDY    50  21  32 SE7       30.15F
ROGERS         CLOUDY    47  26  44 SE10      30.14F
6HR MIN TEMP:  47; 6HR MAX TEMP:  52;

SILOAM SPGS    MOCLDY    48  25  40 CALM      30.15S
6HR MIN TEMP:  48; 6HR MAX TEMP:  55;

HIGHFILL       CLOUDY    50  27  40 E6        30.13F
6HR MIN TEMP:  50; 6HR MAX TEMP:  56;

SPRINGDALE     MOCLDY    48  25  40 E7        30.17F
$$

ARZ004-005-016-120100-
NORTH CENTRAL ARKANSAS

CITY           SKY/WX    TMP DP  RH WIND       PRES   REMARKS
BATESVILLE     MOCLDY    43  21  42 E9        30.26R
6HR MIN TEMP:  43; 6HR MAX TEMP:  48;

FLIPPIN        PTCLDY    46  18  31 E3        30.19S
6HR MIN TEMP:  41; 6HR MAX TEMP:  50;

MTN HOME       CLOUDY    44  20  38 E5        30.19S
6HR MIN TEMP:  41; 6HR MAX TEMP:  49;

$$

ARZ040-041-120100-
WEST CENTRAL ARKANSAS

CITY           SKY/WX    TMP DP  RH WIND       PRES   REMARKS
MENA           CLEAR     59  34  38 E7        30.13R
MOUNT IDA      PTCLDY    52  32  46 CALM      30.13R
6HR MIN TEMP:  52; 6HR MAX TEMP:  63;

$$

ARZ009-017-025-026-028-120100-
NORTHEAST ARKANSAS

CITY           SKY/WX    TMP DP  RH WIND       PRES   REMARKS
CORNING        FAIR      39  23  52 E10       30.29R
JONESBORO      PTCLDY    39  25  57 NE10      30.25R
6HR MIN TEMP:  39; 6HR MAX TEMP:  43;

NEWPORT        PTCLDY    39  25  58 NE8       30.27R
6HR MIN TEMP:  39; 6HR MAX TEMP:  47;

WALNUT RIDGE   CLOUDY    39  21  48 E10       30.28R
6HR MIN TEMP:  39; 6HR MAX TEMP:  45;

BLYTHEVILLE    CLEAR     39  26  59 NE10      30.26R
6HR MIN TEMP:  39; 6HR MAX TEMP:  49;

$$

ARZ022-023-033-042-044-120100-
CENTRAL ARKANSAS

CITY           SKY/WX    TMP DP  RH WIND       PRES   REMARKS
LITTLE ROCK    MOCLDY    45  25  45 E9        30.21R
6HR MIN TEMP:  45; 6HR MAX TEMP:  54;

N LITTLE ROCK  MOCLDY    45  27  50 NE7       30.21R
6HR MIN TEMP:  45; 6HR MAX TEMP:  54;

JACKSONVILLE   PTCLDY    46  24  43 E9        30.21R
6HR MIN TEMP:  46; 6HR MAX TEMP:  52;

SEARCY         PTCLDY    44  26  49 NE12      30.24S
6HR MIN TEMP:  44; 6HR MAX TEMP:  50;

HOT SPRINGS    CLEAR     51  27  39 E6        30.16S
6HR MIN TEMP:  51; 6HR MAX TEMP:  57;

RUSSELLVILLE   MOCLDY    51  25  36 E6        30.18R
6HR MIN TEMP:  50; 6HR MAX TEMP:  56;

CLINTON        FAIR      46  25  42 CALM      30.22R
$$

ARZ036-120100-
EAST ARKANSAS

CITY           SKY/WX    TMP DP  RH WIND       PRES   REMARKS
WEST MEMPHIS   CLEAR     44  26  49 NE9       30.21R
6HR MIN TEMP:  44; 6HR MAX TEMP:  51;

$$

ARZ050-053-066-070-073-120100-
SOUTHWEST ARKANSAS

CITY           SKY/WX    TMP DP  RH WIND       PRES   REMARKS
ARKADELPHIA    FAIR      52  32  46 NE6       30.17R
6HR MIN TEMP:  52; 6HR MAX TEMP:  60;

CAMDEN         CLEAR     54  30  40 NE7       30.15R
TEXARKANA      CLEAR     62  39  42 NE9       30.09R
6HR MIN TEMP:  62; 6HR MAX TEMP:  71;

EL DORADO      CLEAR     58  36  43 NE8       30.12R
6HR MIN TEMP:  58; 6HR MAX TEMP:  73;

DE QUEEN       PTCLDY    62  40  44 E8        30.08R
6HR MIN TEMP:  62; 6HR MAX TEMP:  72;

$$

ARZ056-057-069-120100-
SOUTHEAST ARKANSAS

CITY           SKY/WX    TMP DP  RH WIND       PRES   REMARKS
PINE BLUFF     CLEAR     46  30  53 N9        30.19R
6HR MIN TEMP:  46; 6HR MAX TEMP:  53;

STUTTGART      CLEAR     43  27  52 N9        30.21R
6HR MIN TEMP:  43; 6HR MAX TEMP:  52;

MONTICELLO     CLEAR     52  32  46 N3        30.16R
6HR MIN TEMP:  52; 6HR MAX TEMP:  60;


$$





USA.gov is the U.S. government's official web portal to all federal, state and local government web resources and services.